Syracuse, NY

12:38 PM EST on November 18, 2019 (GMT -0500)
Syracuse Hancock International

Weather History for KSYR - September, 2019

Change the Weather History Date:

Tuesday, September 24, 2019

  Actual Average Record
Temperature  
Mean Temperature 60 °F 59 °F  
Max Temperature 66 °F 69 °F 90 °F (2010)
Min Temperature 53 °F 49 °F 29 °F (1963)
Degree Days  
Heating Degree Days 5 7  
Month to date heating degree days 48 91  
Since 1 July heating degree days 53 117  
Cooling Degree Days 0 1  
Month to date cooling degree days 36 49  
Year to date cooling degree days 604 562  
Growing Degree Days 10 (Base 50)    
Moisture  
Dew Point 55 °F    
Average Humidity 80    
Maximum Humidity 93    
Minimum Humidity 58    
Precipitation  
Precipitation 0.06 in 0.13 in 2.59 in (2001)
Month to date precipitation 3.04 2.94  
Year to date precipitation 33.68 27.53  
Snow  
Snow 0.00 in 0.00 in 0.00 in (2002)
Month to date snowfall 0.0 0.0  
Since 1 July snowfall T 0.0  
Since 1 September snowfall 0.0 0.0  
Snow Depth 0.00 in    
Sea Level Pressure  
Sea Level Pressure 29.82 in    
Wind  
Wind Speed 10 mph ()    
Max Wind Speed 21 mph    
Max Gust Speed 26 mph    
Visibility 9.2 miles    
Events Rain    
T = Trace of Precipitation, MM = Missing Value Source: Averaged Metar Reports

Daily Weather History Graph

Daily Weather History Graph

Search for Another Location

Airport or City:

Astronomy

Sep. 24, 2019 Rise Set
Actual Time 6:53 AM EDT 6:58 PM EDT
Civil Twilight 6:25 AM EDT 7:26 PM EDT
Nautical Twilight 5:52 AM EDT 8:00 PM EDT
Astronomical Twilight 5:18 AM EDT 8:33 PM EDT
Moon 1:26 AM EDT (9/24) 4:51 PM EDT (9/24)
Length of Visible Light 13h 01m
Length of Day
12h 04m
Waning Crescent, 23% of the Moon is Illuminated
Sep 24
Waning Crescent
Sep 28
New
Oct 5
First Quarter
Oct 13
Full
Oct 21
Last Quarter

Hourly Weather History & Observations

Time (EDT) Temp. Dew Point Humidity Pressure Visibility Wind Dir Wind Speed Gust Speed Precip Events Conditions
12:54 AM 62.1 °F 59.0 °F 90% 29.77 in 10.0 mi WSW 8.1 mph - N/A   Mostly Cloudy
1:11 AM 62.1 °F 59.0 °F 90% 29.79 in 4.0 mi West 16.1 mph 20.7 mph 0.03 in Rain Rain
1:54 AM 59.0 °F 55.9 °F 90% 29.77 in 10.0 mi WSW 5.8 mph - 0.03 in   Mostly Cloudy
2:54 AM 60.1 °F 57.0 °F 90% 29.75 in 10.0 mi WSW 5.8 mph - N/A   Mostly Cloudy
3:54 AM 60.1 °F 57.0 °F 90% 29.75 in 10.0 mi WSW 10.4 mph - N/A   Mostly Cloudy
4:54 AM 60.1 °F 55.9 °F 86% 29.75 in 10.0 mi WSW 11.5 mph - N/A   Mostly Cloudy
5:54 AM 60.1 °F 55.9 °F 86% 29.77 in 10.0 mi WSW 11.5 mph - N/A   Mostly Cloudy
6:40 AM 60.1 °F 55.9 °F 86% 29.78 in 10.0 mi WSW 12.7 mph 20.7 mph 0.00 in   Overcast
6:54 AM 60.1 °F 55.9 °F 86% 29.77 in 10.0 mi WSW 13.8 mph - 0.00 in   Overcast
7:00 AM 60.1 °F 55.9 °F 86% 29.79 in 10.0 mi WSW 12.7 mph - N/A   Overcast
7:54 AM 60.1 °F 55.9 °F 86% 29.78 in 4.0 mi West 13.8 mph - 0.00 in Rain Light Rain
7:59 AM 60.1 °F 55.9 °F 86% 29.80 in 1.5 mi West 13.8 mph - 0.01 in Rain Light Rain
8:06 AM 59.0 °F 57.0 °F 93% 29.80 in 3.0 mi WSW 12.7 mph - 0.03 in Rain Light Rain
8:34 AM 60.1 °F 57.0 °F 90% 29.81 in 10.0 mi West 8.1 mph - 0.03 in   Overcast
8:54 AM 60.1 °F 57.0 °F 90% 29.81 in 10.0 mi West 11.5 mph - 0.03 in   Overcast
9:16 AM 62.1 °F 57.9 °F 86% 29.82 in 10.0 mi WSW 12.7 mph - N/A   Overcast
9:45 AM 61.0 °F 57.9 °F 90% 29.83 in 9.0 mi West 12.7 mph - 0.00 in Rain Light Rain
9:54 AM 62.1 °F 57.9 °F 86% 29.82 in 10.0 mi West 12.7 mph - 0.00 in   Overcast
10:07 AM 62.1 °F 57.9 °F 86% 29.83 in 10.0 mi West 12.7 mph 20.7 mph N/A   Mostly Cloudy
10:20 AM 64.9 °F 57.9 °F 78% 29.84 in 10.0 mi WNW 15.0 mph - N/A   Mostly Cloudy
10:54 AM 62.1 °F 57.0 °F 84% 29.83 in 10.0 mi WNW 11.5 mph - N/A   Mostly Cloudy
11:20 AM 64.9 °F 57.0 °F 75% 29.85 in 10.0 mi WNW 16.1 mph 24.2 mph N/A   Mostly Cloudy
11:54 AM 63.0 °F 55.0 °F 75% 29.85 in 10.0 mi WNW 13.8 mph - N/A   Mostly Cloudy
12:29 PM 64.9 °F 52.0 °F 63% 29.86 in 10.0 mi West 18.4 mph - N/A   Mostly Cloudy
12:54 PM 66.0 °F 51.1 °F 59% 29.85 in 10.0 mi West 17.3 mph 25.3 mph N/A   Mostly Cloudy
1:54 PM 64.9 °F 50.0 °F 58% 29.86 in 10.0 mi WNW 16.1 mph - N/A   Mostly Cloudy
2:54 PM 64.0 °F 50.0 °F 60% 29.86 in 10.0 mi West 18.4 mph - N/A   Mostly Cloudy
3:54 PM 63.0 °F 48.9 °F 60% 29.86 in 10.0 mi West 17.3 mph - N/A   Mostly Cloudy
4:54 PM 63.0 °F 50.0 °F 63% 29.86 in 10.0 mi West 13.8 mph 20.7 mph N/A   Mostly Cloudy
5:54 PM 63.0 °F 51.1 °F 65% 29.87 in 10.0 mi West 10.4 mph - N/A   Overcast
6:54 PM 62.1 °F 52.0 °F 70% 29.88 in 10.0 mi West 9.2 mph - N/A   Overcast
7:54 PM 60.1 °F 52.0 °F 75% 29.88 in 10.0 mi West 5.8 mph - N/A   Overcast
8:54 PM 60.1 °F 53.1 °F 78% 29.88 in 10.0 mi WSW 5.8 mph - N/A   Overcast
9:54 PM 59.0 °F 52.0 °F 78% 29.88 in 10.0 mi WSW 5.8 mph - N/A   Mostly Cloudy
10:54 PM 55.9 °F 51.1 °F 84% 29.87 in 10.0 mi Calm Calm - N/A   Scattered Clouds
11:54 PM 55.0 °F 50.0 °F 83% 29.86 in 10.0 mi Calm Calm - N/A   Scattered Clouds